Tracking 28790 objects as of 18-Apr-2024
HD Live streaming from Space Station
objects crossing your sky now

STARLINK-4154

Track STARLINK-4154 now!
10-day predictions
STARLINK-4154 is classified as:


NORAD ID: 53133
Int'l Code: 2022-083B
Perigee: 545.8 km
Apogee: 548.0 km
Inclination: 53.2 °
Period: 95.4 minutes
Semi major axis: 6917 km
RCS: Unknown
Launch date: July 17, 2022
Source: United States (US)
Launch site: AIR FORCE EASTERN TEST RANGE (AFETR)
Your satellite tracking list
Your tracking list is empty




NASA's NSSDC Master Catalog

Two Line Element Set (TLE):
1 53133U 22083B   24109.07409763 -.00001960  00000-0 -10513-3 0  9993
2 53133  53.2187  34.4905 0001617 104.8228 255.2944 15.08829324 97580
Source of the keplerian elements: AFSPC